Regional Weather Roundup
Issued by NWS

Home | Current Version | Previous Version | Graphics & Text | Print | Product List | Glossary On
Versions: 1 2 3 4 5 6 7 8 9 10 11 12 13 14 15 16 17 18 19 20 21 22 23 24 25 26 27 28 29 30 31 32 33 34 35 36 37 38 39 40 41 42 43 44 45 46 47 48 49 50
000
ASUS45 KABQ 210610
RWRNM
NEW MEXICO REGIONAL WEATHER ROUNDUP
NATIONAL WEATHER SERVICE ALBUQUERQUE NM
1200 AM MDT SAT OCT 21 2017

NOTE: "FAIR" MEANS FEW OR NO CLOUDS BELOW 12,000 FEET AGL WITH NO
       SIGNIFICANT WEATHER OR OBSTRUCTIONS TO VISION.

      THIS PRODUCT IS RELEASED AS TWO VERSIONS.  ONE VERSION NEAR
      THE TOP OF THE HOUR CONTAINING PRELIMINARY DATA FROM ALBUQUERQUE
      AND OTHER STATIONS.  A FINAL VERSION WITH ADDITIONAL DATA IS
      ISSUED ABOUT 10 MINUTES AFTER THE HOUR.

NMZ501-503-504-510>518-210700-
NORTHWEST PLATEAU/NORTHCENTRAL MOUNTAINS

CITY           SKY/WX    TMP DP  RH WIND       PRES   REMARKS
FARMINGTON     FAIR      59  29  31 W14       29.81R
6HR MIN TEMP:  59; 6HR MAX TEMP:  70;

LOS ALAMOS     FAIR      56  27  33 SW10G17   29.90R
SANTA FE       FAIR      55  34  45 SW14      29.86S
6HR MIN TEMP:  51; 6HR MAX TEMP:  66;

TAOS           FAIR      49  37  63 SW10      29.91R
ANGEL FIRE     MOCLDY    51  30  43 SW17G28   29.92S

$$
NMZ402-403-502-505>509-210700-
WESTCENTRAL MOUNTAINS/SOUTHWEST MOUNTAINS

CITY           SKY/WX    TMP DP  RH WIND       PRES   REMARKS
GALLUP         FAIR      55  34  45 SW15G30   29.95R
6HR MIN TEMP:  55; 6HR MAX TEMP:  66;

GRANTS         FAIR      57  33  40 W13G24    29.93S
SILVER CITY    FAIR      63  36  36 W16       29.95F

$$
NMZ407-409-411-412-210700-
SOUTHERN DESERTS

CITY           SKY/WX    TMP DP  RH WIND       PRES   REMARKS
DEMING         FAIR      66  36  32 SW9       29.90S
6HR MIN TEMP:  64; 6HR MAX TEMP:  81;

LAS CRUCES     FAIR      65  38  36 SW10      29.91R
HOLLOMAN AFB   FAIR      63  44  49 SE16      29.86F
ALAMOGORDO     FAIR      66  41  39 S15       29.87S
T OR C         FAIR      63  38  39 W5        29.86R
6HR MIN TEMP:  63; 6HR MAX TEMP:  78;


$$
NMZ519>523-210700-
CENTRAL VALLEYS/CENTRAL HIGHLANDS

CITY           SKY/WX    TMP DP  RH WIND       PRES   REMARKS
ALBUQUERQUE    FAIR      62  32  32 S7        29.86R
6HR MIN TEMP:  59; 6HR MAX TEMP:  72;

DOUBLE EAGLE   FAIR      55  31  40 SW9       29.88R
MORIARTY ARPT  FAIR      49  35  58 E6        29.90R
6HR MIN TEMP:  48; 6HR MAX TEMP:  69;

CLINES CORNERS FAIR      53  30  41 SW20      29.92R
6HR MIN TEMP:  50; 6HR MAX TEMP:  62;

BELEN          FAIR      59  30  33 W9        29.85R
6HR MIN TEMP:  59; 6HR MAX TEMP:  74;

SOCORRO        FAIR      69  31  23 SW22G31   29.80F
6HR MIN TEMP:  63; 6HR MAX TEMP:  75;


$$
NMZ524>526-539-540-210700-
SOUTHCENTRAL MOUNTAINS

CITY           SKY/WX    TMP DP  RH WIND       PRES   REMARKS
RUIDOSO        FAIR      59  36  41 SW25G33   29.96F

$$
NMZ527>531-210700-
NORTHEAST HIGHLANDS/NORTHEAST PLAINS

CITY           SKY/WX    TMP DP  RH WIND       PRES   REMARKS
LAS VEGAS      FAIR      52  36  54 SW16      29.85F
6HR MIN TEMP:  51; 6HR MAX TEMP:  61;

RATON          FAIR      48  37  65 S3        29.76S
6HR MIN TEMP:  47; 6HR MAX TEMP:  62;

CLAYTON        FAIR      57  45  64 S16       29.72S
6HR MIN TEMP:  53; 6HR MAX TEMP:  69;


$$
NMZ532>537-210700-
EASTCENTRAL PLAINS

CITY           SKY/WX    TMP DP  RH WIND       PRES   REMARKS
SANTA ROSA     FAIR      62  39  42 SW17      29.78F
TUCUMCARI      FAIR      63  45  51 SW18      29.72F
6HR MIN TEMP:  59; 6HR MAX TEMP:  74;

CANNON AFB     FAIR      61  61 100 SW13      29.82F
6HR MIN TEMP:  57; 6HR MAX TEMP:  72;

CLOVIS AIRPORT FAIR      59  54  83 S14       29.82F

$$
NMZ028-029-538-210700-
SOUTHEAST PLAINS

CITY           SKY/WX    TMP DP  RH WIND       PRES   REMARKS
ROSWELL        FAIR      63  55  75 S14       29.81S
6HR MIN TEMP:  60; 6HR MAX TEMP:  77;

ARTESIA        FAIR      55  54  94 S7        29.82S
CARLSBAD       FAIR      63  60  90 S13       29.81F
6HR MIN TEMP:  61; 6HR MAX TEMP:  78;

HOBBS          MOCLDY    61  59  94 SW14G21   29.86F


$$




USA.gov is the U.S. government's official web portal to all federal, state and local government web resources and services.